[[{"header":{"parameterUnit":"m.s-1","parameterCategory":1,"la1":30.2991,"la2":30.254,"lo1":-89.0895,"lo2":-89.0444,"dy":0.0017,"dx":0.0017,"nx":28,"ny":28,"refTime":"2025-01-03T03:00:00:Z","depth":0,"parameterNumber":2,"parameterNumberName":"U-component_of_WINDS"},"data":[0,0,0,0,0,0,0,0,0,0,0,0,0,0,0,0,0,0,0,0,0,0,0,0,0,0,0,0,0,0,0,0,0,0,0,0,0,0,0,0,0,0,0,0,0,0,0,0,0,0,0,0,0,0,0,0,0,0,-5.2976,-5.2976,0,-5.3019,-5.3019,-5.302,-5.2956,-5.2953,-5.2951,-5.2949,-5.2992,-5.2995,-5.2998,0,0,0,0,0,0,0,0,0,0,0,0,0,-5.2838,-5.2841,-5.2976,-5.2977,-5.2977,-5.3019,-5.3019,-5.302,-5.2956,-5.2953,-5.2951,-5.2948,-5.2991,-5.2995,-5.2999,0,0,0,0,0,0,0,0,0,0,0,0,0,-5.2891,-5.2842,-5.2976,-5.295,-5.2948,-5.3019,-5.3019,-5.302,-5.2957,-5.2953,-5.295,-5.2947,-5.299,-5.2994,-5.2999,-5.3096,0,0,-5.3014,-5.3016,0,0,0,0,0,0,0,0,-5.2888,-5.2896,-5.2953,-5.2952,-5.295,-5.2978,-5.2986,-5.3046,-5.2957,-5.2953,-5.2949,-5.2945,-5.299,-5.2995,-5.301,-5.3098,-5.31,-5.3014,-5.3017,-5.3019,-5.3021,0,0,0,0,0,0,0,-5.2884,-5.2894,-5.2993,-5.2954,-5.2952,-5.2936,-5.294,-5.2997,-5.299,-5.2954,-5.2949,-5.2955,-5.2989,-5.3006,-5.3011,-5.3101,-5.3014,-5.3019,-5.3022,-5.3024,-5.3269,-5.3273,0,0,0,0,0,0,-5.2884,-5.2891,-5.2991,-5.2994,-5.291,-5.2941,-5.2946,-5.2973,-5.2989,-5.2989,-5.2958,-5.2952,-5.2999,-5.3005,-5.3012,-5.3125,-5.3019,-5.3024,-5.3027,-5.3266,-5.327,-5.3274,0,0,0,0,0,0,-5.2881,-5.2894,-5.299,-5.2942,-5.2953,-5.2947,-5.2978,-5.2975,-5.2992,-5.2993,-5.2991,-5.2976,-5.2997,-5.3005,-5.3076,-5.3125,-5.3026,-5.3031,-5.3262,-5.3267,-5.3272,-5.3353,0,0,0,0,0,0,-5.2878,-5.2893,-5.293,-5.2943,-5.2955,-5.3053,-5.2981,-5.2979,-5.3001,-5.2993,-5.301,-5.3009,-5.2995,-5.3069,-5.308,-5.313,-5.3034,-5.3257,-5.3264,-5.327,-5.3345,-5.336,-5.3373,0,0,0,0,0,-5.2873,-5.2951,-5.2932,-5.2945,-5.3002,-5.3056,-5.3063,-5.3045,-5.3005,-5.3042,-5.3042,-5.3009,-5.3119,-5.3076,-5.3089,-5.3141,-5.3254,-5.3262,-5.327,-5.3339,-5.3357,-5.3372,0,0,0,0,0,0,-5.2944,-5.2952,-5.2931,-5.3016,-5.3036,-5.3045,-5.3091,-5.3065,-5.3096,-5.3088,-5.3064,-5.3068,-5.3143,-5.315,-5.3102,-5.3236,-5.318,-5.3191,-5.3228,-5.3245,-5.3258,-5.3254,-5.3038,0,0,0,0,0,-5.297,-5.3013,-5.3018,-5.3093,-5.3104,-5.3096,-5.3119,-5.3104,-5.3123,-5.3131,-5.3136,-5.3156,-5.3195,-5.3221,-5.3257,-5.3347,-5.3349,-5.339,-5.3403,-5.3414,-5.3423,-5.3469,-5.3487,-5.3301,-5.3301,-5.3301,0,0,-5.3022,-5.3033,-5.3062,-5.3107,-5.3121,-5.3166,-5.3103,-5.3154,-5.3187,-5.3138,-5.3204,-5.321,-5.323,-5.331,-5.3346,-5.3318,-5.3475,-5.3425,-5.3434,-5.3436,-5.348,-5.3497,-5.3513,-5.3306,-5.3305,-5.3305,0,0,-5.3141,-5.3155,-5.3217,-5.3232,-5.3253,-5.3248,-5.3263,-5.3276,-5.3277,-5.3344,-5.3308,-5.3347,-5.3415,-5.3431,-5.3448,-5.3574,-5.3543,-5.3586,-5.3656,-5.3702,-5.3716,-5.3729,-5.3771,-5.3787,-5.3596,-5.3596,-5.3596,0,-5.3204,-5.3271,-5.3252,-5.3305,-5.3325,-5.3285,-5.3347,-5.3363,-5.3395,-5.3409,-5.3378,-5.3462,-5.3473,-5.3555,-5.3586,-5.3602,-5.3617,-5.3583,-5.3716,-5.3729,-5.374,-5.378,-5.3797,-5.3601,-5.36,-5.36,-5.3599,0,-5.3346,-5.3393,-5.3441,-5.3472,-5.3499,-5.3557,-5.3546,-5.3575,-5.3558,-5.3556,-5.3623,-5.3635,-5.3672,-5.3692,-5.3676,-5.3772,-5.3753,-5.372,-5.3662,-5.3763,-5.38,-5.3816,-5.3608,-5.3606,-5.3605,-5.3604,0,0,-5.3508,-5.3529,-5.3547,-5.356,-5.3581,-5.3617,-5.3673,-5.3709,-5.3733,-5.3758,-5.3803,-5.3862,-5.3831,-5.385,-5.3836,-5.3876,-5.3972,-5.3837,-5.3837,-5.3859,-5.4076,-5.4099,-5.4117,-5.3953,-5.3956,-5.3959,-5.4073,0,-5.3624,-5.372,-5.3705,-5.3797,-5.3839,-5.3802,-5.385,-5.3868,-5.3868,-5.3904,-5.3904,-5.3945,-5.3902,-5.3913,-5.3952,-5.3952,-5.4015,-5.3944,-5.3993,-5.3995,-5.3985,-5.4137,-5.4161,-5.4268,-5.4088,-5.409,-5.4092,0,-5.3772,-5.3801,-5.3898,-5.3911,-5.3928,-5.3972,-5.4004,-5.4039,-5.4058,-5.4055,-5.4078,-5.4056,-5.4111,-5.4055,-5.413,-5.4082,-5.4102,-5.4105,-5.4109,-5.411,-5.4047,-5.4139,-5.4302,-5.4317,-5.4115,-5.4114,-5.4112,0,-5.3877,-5.3941,-5.4006,-5.4019,-5.4038,-5.4069,-5.4078,-5.4094,-5.4117,-5.4145,-5.4159,-5.4194,-5.4212,-5.4239,-5.4227,-5.4188,-5.4303,-5.4247,-5.43,-5.43,-5.4323,-5.4321,-5.4489,-5.4342,-5.4341,-5.4341,-5.4341,0,-5.4006,-5.4066,-5.4053,-5.4093,-5.4159,-5.4142,-5.4207,-5.4212,-5.4227,-5.4266,-5.4237,-5.4275,-5.4258,-5.4295,-5.4286,-5.4348,-5.4357,-5.4355,-5.4351,-5.4356,-5.4356,-5.4366,-5.4357,-5.4345,-5.4344,-5.4344,-5.4343,0,-5.4133,-5.4127,-5.4196,-5.4208,-5.4212,-5.426,-5.427,-5.4307,-5.4305,-5.4356,-5.4367,-5.4364,-5.4405,-5.4397,-5.4443,-5.4437,-5.4513,-5.4502,-5.4506,-5.4502,-5.4555,-5.4549,-5.4732,-5.4754,-5.4596,-5.4597,-5.4599,0,-5.4214,-5.4259,-5.4276,-5.4301,-5.4312,-5.4352,-5.4375,-5.4361,-5.4386,-5.4411,-5.4445,-5.4484,-5.4514,-5.4582,-5.4584,-5.4619,-5.4606,-5.4668,-5.4611,-5.4613,-5.4603,-5.4599,-5.4602,-5.4678,-5.468,-5.4681,-5.4682,0,-5.4358,-5.4353,-5.4387,-5.4421,-5.4449,-5.4475,-5.4497,-5.4519,-5.4506,-5.4536,-5.4578,-5.4602,-5.4648,-5.4687,-5.4719,-5.4728,-5.4703,-5.4701,-5.4715,-5.4718,-5.4717,-5.4715,-5.4533,-5.4696,-5.4695,-5.4694,-5.4693,-5.4692,-5.4463,-5.45,-5.4518,-5.4556,-5.4572,-5.4594,-5.4629,-5.4632,-5.4667,-5.4703,-5.4693,-5.4741,-5.4759,-5.4799,-5.4812,-5.4849,-5.4825,-5.4846,-5.485,-5.4855,-5.486,-5.4714,-5.4855,-5.4855,-5.4854,-5.4854,-5.4854,0,-5.4602,-5.4612,-5.4648,-5.468,-5.4711,-5.4686,-5.471,-5.4737,-5.4779,-5.4798,-5.4829,-5.4877,-5.4914,-5.4919,-5.4954,-5.4982,-5.4971,-5.4992,-5.4987,-5.4989,-5.488,-5.4863,-5.5,-5.5,-5.4999,-5.4999,-5.4999,-5.4999,-5.4678,-5.4739,-5.4737,-5.4806,-5.4815,-5.4861,-5.4876,-5.4896,-5.4911,-5.4966,-5.4997,-5.5,-5.5013,-5.5049,-5.5082,-5.5083,-5.5095,-5.512,-5.5115,-5.5012,-5.4997,-5.4983,-5.4967,-5.5123,-5.5124,-5.5221,-5.5222,-5.5223]},{"header":{"parameterUnit":"m.s-1","parameterCategory":1,"la1":30.2991,"la2":30.254,"lo1":-89.0895,"lo2":-89.0444,"dy":0.0017,"dx":0.0017,"nx":28,"ny":28,"refTime":"2025-01-03T03:00:00:Z","depth":0,"parameterNumber":3,"parameterNumberName":"V-component_of_WINDS"},"data":[0,0,0,0,0,0,0,0,0,0,0,0,0,0,0,0,0,0,0,0,0,0,0,0,0,0,0,0,0,0,0,0,0,0,0,0,0,0,0,0,0,0,0,0,0,0,0,0,0,0,0,0,0,0,0,0,0,0,3.3249,3.325,0,3.3371,3.3372,3.3374,3.331,3.3307,3.3304,3.3301,3.3426,3.3432,3.3438,0,0,0,0,0,0,0,0,0,0,0,0,0,3.2964,3.2969,3.3248,3.325,3.3252,3.3371,3.3372,3.3374,3.3311,3.3307,3.3303,3.3299,3.3423,3.3431,3.3439,0,0,0,0,0,0,0,0,0,0,0,0,0,3.3087,3.2971,3.3248,3.3235,3.3235,3.337,3.3372,3.3374,3.3312,3.3307,3.3302,3.3298,3.3421,3.343,3.344,3.3596,0,0,3.3469,3.3473,0,0,0,0,0,0,0,0,3.308,3.3097,3.3235,3.3236,3.3236,3.332,3.3318,3.3449,3.3313,3.3282,3.3301,3.3295,3.3395,3.3406,3.3439,3.3602,3.3607,3.347,3.3475,3.3479,3.3482,0,0,0,0,0,0,0,3.3071,3.3092,3.3297,3.3237,3.3238,3.3223,3.3235,3.3342,3.3364,3.3285,3.328,3.3296,3.3394,3.343,3.3442,3.3609,3.3469,3.3478,3.3484,3.3487,3.391,3.3915,0,0,0,0,0,0,3.3063,3.3085,3.3293,3.33,3.3144,3.3232,3.3246,3.3298,3.3363,3.3368,3.33,3.3292,3.3417,3.3431,3.3446,3.3636,3.3479,3.3488,3.3494,3.3905,3.3911,3.3917,0,0,0,0,0,0,3.3058,3.3083,3.3288,3.3192,3.3217,3.3243,3.3302,3.3303,3.334,3.3374,3.3378,3.3333,3.3413,3.3433,3.356,3.3639,3.3493,3.3501,3.3898,3.3907,3.3914,3.4014,0,0,0,0,0,0,3.305,3.3081,3.3139,3.3194,3.3222,3.3399,3.3307,3.3309,3.3356,3.3348,3.3406,3.3411,3.3411,3.3546,3.357,3.3649,3.3509,3.3891,3.3902,3.3912,3.4004,3.4025,3.4043,0,0,0,0,0,3.304,3.3161,3.3142,3.3168,3.3296,3.3404,3.342,3.3417,3.3363,3.3423,3.3446,3.341,3.3627,3.356,3.3586,3.3669,3.3886,3.3899,3.3911,3.3995,3.4021,3.4043,0,0,0,0,0,0,3.3113,3.3168,3.3147,3.329,3.3343,3.3393,3.3467,3.3444,3.3513,3.3502,3.3495,3.3509,3.3642,3.3669,3.3593,3.3826,3.3748,3.3767,3.3804,3.3828,3.3847,3.3838,3.3517,0,0,0,0,0,3.3147,3.323,3.3273,3.3395,3.3423,3.3441,3.3488,3.3482,3.3536,3.3558,3.359,3.3644,3.3726,3.3778,3.3854,3.4009,3.4022,3.408,3.4099,3.4115,3.413,3.4217,3.4244,3.3958,3.3958,3.3958,0,0,3.3215,3.3256,3.3308,3.3411,3.3451,3.3538,3.346,3.3554,3.362,3.3572,3.3695,3.3721,3.3782,3.3924,3.3989,3.395,3.4213,3.4131,3.4143,3.415,3.4233,3.426,3.4284,3.3967,3.3965,3.3964,0,0,3.3385,3.3423,3.3531,3.3574,3.3637,3.3649,3.3676,3.3731,3.3747,3.387,3.3838,3.3916,3.4054,3.41,3.4141,3.4336,3.4306,3.4361,3.4462,3.4547,3.4569,3.4589,3.466,3.4686,3.4377,3.4377,3.4377,0,3.3462,3.3592,3.3588,3.3687,3.3735,3.3699,3.3809,3.3851,3.3935,3.3969,3.3926,3.4103,3.414,3.4295,3.4343,3.4377,3.4408,3.4353,3.4566,3.4586,3.4605,3.4673,3.4699,3.4383,3.4382,3.4382,3.4381,0,3.3685,3.3776,3.3855,3.394,3.3997,3.41,3.4115,3.4173,3.4164,3.4182,3.4311,3.4356,3.4442,3.4479,3.4469,3.4634,3.4608,3.4566,3.4487,3.4638,3.4702,3.4728,3.4392,3.439,3.4388,3.4387,0,0,3.3899,3.3985,3.4015,3.4054,3.4124,3.4195,3.4299,3.4385,3.4436,3.4497,3.4586,3.4707,3.467,3.4717,3.4714,3.4788,3.4943,3.4737,3.4739,3.4775,3.5129,3.516,3.519,3.4924,3.4929,3.4933,3.5124,0,3.4074,3.4256,3.4259,3.4427,3.4513,3.4483,3.4574,3.4628,3.4649,3.4726,3.4749,3.4836,3.4779,3.4808,3.4881,3.4908,3.5014,3.4895,3.5007,3.5011,3.4992,3.5223,3.5255,3.5433,3.5149,3.5153,3.5156,0,3.4301,3.4373,3.4549,3.4611,3.4647,3.4729,3.4811,3.4884,3.4946,3.4957,3.5013,3.5,3.5108,3.5028,3.5179,3.5098,3.5145,3.5167,3.5173,3.5183,3.5092,3.5239,3.549,3.5516,3.5195,3.5192,3.5189,0,3.4442,3.4582,3.4707,3.4742,3.4816,3.4875,3.4909,3.4967,3.502,3.5092,3.5127,3.521,3.5256,3.5322,3.5333,3.5273,3.5486,3.5405,3.5498,3.5498,3.5542,3.5539,3.5804,3.5574,3.5573,3.5573,3.5572,0,3.4636,3.4746,3.4771,3.4848,3.4971,3.4976,3.5098,3.5127,3.518,3.5263,3.5243,3.5322,3.5331,3.5414,3.5423,3.5548,3.5569,3.5581,3.5582,3.5583,3.5581,3.5612,3.56,3.558,3.5578,3.5577,3.5576,0,3.4812,3.4834,3.4968,3.503,3.5049,3.5137,3.519,3.5265,3.5286,3.5392,3.5418,3.5451,3.5547,3.5565,3.5678,3.5685,3.5835,3.5823,3.5814,3.5812,3.5905,3.5896,3.6198,3.6239,3.5982,3.5984,3.5986,0,3.4934,3.5018,3.5091,3.5146,3.5184,3.5272,3.5327,3.5337,3.5396,3.5476,3.5542,3.5637,3.5712,3.5868,3.5903,3.5991,3.5981,3.6082,3.5994,3.5993,3.5984,3.5979,3.5988,3.6098,3.61,3.6103,3.6104,0,3.5149,3.5157,3.5238,3.5324,3.5392,3.546,3.5524,3.5571,3.5589,3.5657,3.5756,3.5816,3.5934,3.6028,3.6117,3.6153,3.6133,3.6133,3.6159,3.6159,3.6151,3.6158,3.586,3.6125,3.6123,3.6121,3.612,3.6119,3.5302,3.5377,3.5441,3.5533,3.5584,3.5647,3.5721,3.5754,3.5837,3.5934,3.5935,3.6044,3.6109,3.6227,3.6269,3.6356,3.6324,3.6362,3.6371,3.638,3.639,3.6139,3.6372,3.6371,3.6371,3.637,3.637,0,3.5517,3.5558,3.5643,3.5736,3.581,3.5787,3.5859,3.5922,3.6018,3.6081,3.6158,3.6274,3.6368,3.6412,3.6505,3.6566,3.656,3.6591,3.6586,3.6595,3.6412,3.638,3.6595,3.6595,3.6595,3.6594,3.6594,3.6594,3.5637,3.5764,3.578,3.5934,3.5974,3.6082,3.6126,3.6184,3.6235,3.6366,3.6444,3.6474,3.653,3.6628,3.6714,3.6725,3.676,3.6796,3.6803,3.663,3.6607,3.6585,3.6556,3.6804,3.6804,3.6978,3.698,3.6981]}]]